Location: Darmstadt
(49.8706°N, 8.6494°E)
Time: 00:20:36
(UTC+01:00)

Daily predictions for brighter satellites

Satellite Brightness Start Highest point End
(mag) Time Altitude Azimuth Time Altitude Azimuth Time Altitude Azimuth
ATLAS 3B R/B 4.0 03:09:08 37° NNE 03:09:54 38° NNE 03:17:08 10° E
USA 267 4.2 03:13:20 10° ENE 03:18:01 41° NE 03:18:01 41° NE
ATLAS 2AS CENTAUR R/B 4.3 03:21:05 26° SE 03:22:36 28° ESE 03:28:23 10° ENE
USA 281 4.5 03:21:48 10° ESE 03:27:39 36° NE 03:31:47 18° N
SJ 16-02 4.3 03:34:59 13° E 03:34:59 13° E 03:35:36 10° ESE
Cosmos 1697 Rocket 4.2 03:46:50 30° ESE 03:47:38 31° ESE 03:52:33 10° NE
H-2A R/B 3.2 03:55:16 10° NNE 03:59:56 37° E 04:00:24 36° ESE
Cosmos 968 Rocket 4.4 04:04:33 46° ENE 04:04:33 46° ENE 04:09:09 10° SE
Cosmos 2263 Rocket 3.5 04:05:00 27° N 04:07:16 37° NE 04:12:28 10° ESE
Cosmos 2227 Rocket 2.6 04:12:15 58° ESE 04:12:15 58° ESE 04:16:52 10° SE
CZ-2C R/B 3.7 04:06:38 10° NNE 04:09:19 33° NNE 04:09:19 33° NNE
Cosmos 44 Rocket 4.3 04:17:45 40° ESE 04:17:45 40° ESE 04:20:55 10° SE
USA 59 Rocket 2.3 04:16:59 15° NE 04:16:59 15° NE 04:19:00 10° ENE
ATLAS CENTAUR R/B 3.8 04:17:50 15° ESE 04:18:07 15° ESE 04:20:18 10° ENE
Cosmos 1741 Rocket 4.2 04:23:46 67° ESE 04:23:46 67° ESE 04:28:31 10° SSE
PAYLOAD A 4.2 04:18:51 10° NNE 04:24:19 75° ESE 04:24:30 74° SE
Cosmos 489 Rocket 4.3 04:27:07 78° WNW 04:27:07 78° WNW 04:33:24 10° NNE
IRS-1D 3.8 04:26:30 10° NNE 04:31:28 62° ESE 04:32:48 45° SSE
Cosmos 2219 3.7 04:30:42 31° N 04:33:23 59° ENE 04:38:58 10° SE
Cosmos 1553 Rocket 3.8 04:31:46 10° NNW 04:38:04 75° W 04:44:25 10° S
BREEZE-M DEB (TANK) 4.1 04:36:19 49° SW 04:38:16 72° SSE 04:41:52 10° E
NOSS 3-1 (C) 4.2 04:45:02 48° WSW 04:45:22 48° WSW 04:53:37 10° S
NOSS 3-1 (A) 3.9 04:45:27 41° NW 04:48:23 75° SW 04:57:10 10° SSE
Cosmos 1656 4.2 04:49:39 43° NNW 04:49:39 43° NNW 04:54:16 10° NNE
Lacrosse 4 Rocket 2.0 04:56:42 41° N 04:57:45 53° NE 05:01:48 10° SE
Cosmos 1452 Rocket 3.4 04:58:10 35° SSW 05:00:25 90° ESE 05:05:43 10° NNE
ATLAS 3B R/B 3.0 04:56:24 24° NW 05:01:42 87° NE 05:09:28 10° SE
USA 267 3.5 04:55:39 10° E 05:02:03 61° NNE 05:05:21 30° NW
Cosmos 1484 Rocket 3.4 04:59:49 10° NNE 05:03:16 48° E 05:06:40 10° S
Meteor 2-20 4.4 05:00:39 10° N 05:06:50 85° E 05:12:57 10° S
Cosmos 1300 Rocket 3.4 05:07:47 59° NW 05:08:25 70° W 05:12:48 10° S
ARGOS 3.5 05:04:51 10° NNE 05:10:17 68° ESE 05:15:41 10° S
Cosmos 2369 Rocket 4.4 05:10:16 10° NNW 05:10:42 10° NNW 05:11:47 10° N
SJ 16-02 1.7 05:11:45 45° SSW 05:11:45 45° SSW 05:15:04 10° S
USA 281 3.1 05:05:22 10° SSE 05:11:52 63° WSW 05:18:25 10° NNW
Cosmos 1980 Rocket 2.6 05:06:56 10° SSW 05:12:26 64° ESE 05:17:59 10° NE
ATLAS 2AS CENTAUR R/B 2.7 05:08:34 27° SW 05:12:54 83° NW 05:19:57 10° NE
Cosmos 2315 Rocket 4.1 05:07:26 10° N 05:13:52 80° E 05:20:14 10° SSE
Cosmos 1892 2.6 05:14:35 10° S 05:17:58 69° E 05:21:22 10° NNE
CZ-4 R/B 4.4 05:15:53 10° N 05:20:20 38° WNW 05:20:20 38° WNW
Cosmos 1939 Rocket 2.5 05:18:26 10° N 05:22:10 75° WNW 05:24:01 28° SSW
Cosmos 304 Rocket 4.4 05:18:05 10° NNW 05:22:47 56° ENE 05:27:27 10° SE
NOSS 8 (A) 4.3 05:23:12 63° WSW 05:23:41 83° NW 05:26:51 10° NE
Cosmos 1825 1.5 05:26:33 59° SSW 05:27:03 82° W 05:30:16 10° N
Cosmos 883 Rocket 4.4 05:23:18 10° NNW 05:29:40 77° W 05:35:58 10° S
COSMO-SKYMED 1 2.6 05:25:46 10° SSE 05:30:06 84° ENE 05:34:29 10° NNW
Cosmos 2242 Rocket 3.5 05:26:14 10° S 05:30:43 86° W 05:35:12 10° N
Cosmos 1697 Rocket 2.8 05:28:37 28° WSW 05:31:21 52° NW 05:36:55 10° NNE
BREEZE-M DEB (TANK) 4.2 05:30:49 10° S 05:32:14 14° SE 05:33:52 10° ESE
Cosmos 2285 Rocket 4.3 05:27:56 18° NW 05:32:20 43° WSW 05:38:16 10° S
SL-08 RB Rocket 3.7 05:31:48 10° NNE 05:36:24 88° E 05:41:00 10° SSW
H-2A R/B 4.4 05:34:26 10° NE 05:36:33 23° E 05:38:38 10° SSE
H-2A R/B 2.5 05:34:42 10° N 05:39:16 34° WNW 05:40:56 27° WSW
SL-08 ROCKET BODY 4.4 05:33:54 10° SSW 05:39:45 55° WNW 05:45:34 10° N
Cosmos 1782 Rocket 4.3 05:40:49 30° WSW 05:40:49 30° WSW 05:44:11 10° SSW
Cosmos 2266 Rocket 4.1 05:38:32 10° SSW 05:44:50 57° WNW 05:51:09 10° N
Cosmos 1110 Rocket 4.4 05:42:14 23° WSW 05:45:00 41° WNW 05:50:00 10° NNE
Cosmos 968 Rocket 4.3 05:44:34 27° W 05:45:39 29° W 05:50:04 10° SSW
Cosmos 2082 3.7 05:42:53 12° NW 05:48:12 61° WSW 05:53:45 10° SSE
Cosmos 1655 Rocket 4.0 05:42:31 10° SSW 05:48:55 77° W 05:55:19 10° N
CZ-2C R/B 3.7 05:45:37 10° NNW 05:48:35 20° NW 05:48:35 20° NW
USA 229 DEB 4.0 05:43:58 13° NW 05:50:48 86° SW 05:58:55 10° SE
USA 229 4.0 05:44:05 13° NW 05:50:55 87° SW 05:59:00 10° SE
Cosmos 2263 Rocket 2.4 05:46:44 14° NW 05:51:21 47° WSW 05:56:41 10° S
Thor Agena Rocket 3.8 05:48:07 10° N 05:53:07 47° WNW 05:58:03 10° SW
NOSS 2-1 (D) 3.7 05:51:18 18° NNW 05:53:56 63° NE 05:58:39 10° SE
GENESIS II 3.8 05:52:28 24° WSW 05:54:22 63° NW 05:57:46 10° NE
Cosmos 2227 Rocket 3.3 05:54:08 21° W 05:54:38 21° W 05:58:46 10° SSW
ATLAS CENTAUR R/B 1.0 05:52:20 20° SW 05:54:43 66° NW 05:58:33 10° NE
Cosmos 2151 Rocket 3.6 05:51:17 10° N 05:55:43 86° ENE 06:00:10 10° S
Cosmos 44 Rocket 4.3 05:56:27 22° W 05:57:19 23° WSW 06:00:57 10° SSW
SL-08 R/B 4.5 05:54:11 10° SE 05:58:43 44° ENE 06:03:12 10° N
ARIANE 5 R/B 3.1 05:55:11 10° NNE 06:00:11 61° ESE 06:05:13 10° S
NOAA 12 4.1 05:57:00 10° NNE 06:02:22 86° WNW 06:07:42 10° SSW
Cosmos 371 Rocket 3.3 05:59:53 10° NNW 06:04:38 59° WSW 06:09:21 10° S
USA 59 Rocket 0.0 06:03:14 15° NW 06:06:17 76° NE 06:11:14 10° SE
SL-16 R/B 3.5 06:02:27 10° S 06:07:45 43° ESE 06:13:06 10° NE
Cosmos 332 Rocket 4.4 06:04:20 10° NNW 06:09:11 59° ENE 06:13:59 10° SE
USA 215 3.7 06:02:44 10° ENE 06:09:14 66° SE 06:15:44 10° SW
ADEOS Rocket 4.4 06:03:45 10° NNE 06:10:58 52° E 06:17:30 10° S
Okean 1 Rocket 3.2 06:08:59 10° N 06:13:29 79° E 06:17:56 10° SSE
Cosmos 2219 4.1 06:12:40 11° NW 06:17:09 27° WSW 06:21:50 10° SSW
SKYMED 2 4.2 06:14:22 10° SSW 06:18:19 33° W 06:22:16 10° NNW
SJ-11-01 4.2 06:16:03 10° N 06:20:39 62° WNW 06:25:15 10° SSW
Meteor 1-24 Rocket 4.2 06:17:22 10° SW 06:22:24 36° WNW 06:27:21 10° N
Cosmos 1437 Rocket 2.5 06:21:10 10° SSW 06:24:42 65° WNW 06:28:19 10° N
Cosmos 2333 Rocket 4.4 06:21:43 10° SSE 06:26:41 31° ESE 06:31:38 10° NE
NOSS 2-1 (E) 3.5 06:25:29 10° NW 06:29:10 75° SW 06:34:14 10° SE
CSL-04 DEB 4.5 06:26:01 10° NNE 06:29:57 79° ESE 06:33:55 10° SSW
Cosmos 1818 3.7 06:24:38 10° WSW 06:30:01 57° NW 06:35:26 10° NE
Cosmos 2221 Rocket 3.5 06:26:48 10° SSW 06:31:10 73° W 06:35:37 10° N
TIMED 4.5 06:27:35 10° NNW 06:31:56 87° WSW 06:36:13 10° SSE
Helios 1A 3.8 06:28:11 10° SSE 06:32:08 53° ENE 06:36:07 10° N
Cosmos 1503 Rocket 4.3 06:26:58 10° NNW 06:32:19 74° ENE 06:37:35 10° SSE
Cosmos 2098 Rocket 2.6 06:28:10 10° NNW 06:32:22 70° W 06:35:49 10° S
Cosmos 1486 Rocket 4.0 06:28:25 10° NNW 06:33:37 75° WSW 06:38:48 10° SSE
Lacrosse 4 Rocket 2.8 06:32:31 11° WNW 06:35:31 21° WSW 06:38:36 10° SSW
Cosmos 1484 Rocket 4.2 06:34:16 10° NNW 06:36:26 15° WNW 06:38:34 10° W
Cosmos 2278 3.9 06:31:17 10° SSW 06:36:55 80° ESE 06:42:36 10° NNE
Sich 1 Rocket 4.0 06:36:13 10° NNW 06:40:25 42° W 06:44:38 10° SSW
Cosmos 482 Debris 4.1 06:37:18 10° WSW 06:41:48 84° NNW 06:45:13 10° ENE
Cosmos 1992 Rocket 4.1 06:37:31 10° SW 06:42:38 55° WNW 06:47:48 10° NNE
USA 267 3.4 06:38:34 10° SE 06:45:03 67° SW 06:51:35 10° WNW
Cosmos 1328 4.3 06:42:41 10° SW 06:46:04 32° WNW 06:49:28 10° N
Cosmos 1745 Rocket 4.3 06:40:40 10° S 06:47:00 77° E 06:53:21 10° NNE
Cosmos 2278 Rocket 4.3 06:43:13 10° N 06:47:10 19° NE 06:51:05 10° E
Cosmos 2322 Rocket 3.1 06:43:55 10° S 06:49:26 56° ESE 06:54:58 10° NE
ARGOS 4.2 06:45:52 10° N 06:50:03 23° WNW 06:54:14 10° WSW
ATLAS 3B R/B 3.9 06:45:20 10° NW 06:51:44 28° WSW 06:57:59 10° SSW
Cosmos 1844 Rocket 2.7 06:46:48 10° NNW 06:52:27 71° WSW 06:58:01 10° SSE
